Location: Lugrin
(46.4033°N, 6.6674°E)
Time: 19:58:51
(UTC+00:00)

Envisat - Visible Passes

Search period start: 25 November 2020 00:00
Search period end: 05 December 2020 00:00
Orbit: 764 x 766 km, 98.1° (Epoch: 25 November)

Date Brightness Start Highest point End Pass type
(mag) Time Alt. Az. Time Alt. Az. Time Alt. Az.
25 Nov 6.2 04:05:47 10° ENE 04:08:08 13° E 04:10:29 10° ESE visible
25 Nov 3.0 05:42:43 10° NNE 05:47:50 85° WNW 05:52:54 10° SSW visible
25 Nov 4.0 17:00:04 10° S 17:05:00 50° W 17:09:57 10° NNW visible
26 Nov 4.1 05:06:03 10° NNE 05:10:57 46° E 05:15:49 10° S visible
26 Nov 3.0 16:23:04 10° SSE 16:28:08 78° ENE 16:33:14 10° N visible
26 Nov 6.1 18:05:03 10° WSW 18:07:46 14° W 18:10:30 10° NW visible
27 Nov 5.5 04:29:55 10° NE 04:33:53 22° E 04:37:48 10° SE visible
27 Nov 3.2 06:08:15 10° N 06:13:11 51° WNW 06:18:05 10° SW visible
27 Nov 5.1 17:26:08 10° SSW 17:30:34 30° W 17:35:01 10° NNW visible
28 Nov 6.4 03:56:11 10° E 03:56:35 10° E 03:56:59 10° E visible
28 Nov 3.2 05:31:20 10° NNE 05:36:27 78° ESE 05:41:31 10° S visible
28 Nov 3.6 16:48:33 10° S 16:53:34 63° W 16:58:38 10° NNW visible
29 Nov 4.6 04:54:48 10° NNE 04:59:31 37° E 05:04:11 10° SSE visible
29 Nov 5.9 17:52:49 10° SW 17:56:14 18° W 17:59:41 10° NW visible
30 Nov 5.8 04:18:56 10° NE 04:22:22 18° E 04:25:47 10° SE visible
30 Nov 3.0 05:56:48 10° N 06:01:51 64° WNW 06:06:51 10° SSW visible
30 Nov 4.6 17:14:25 10° SSW 17:19:06 37° W 17:23:49 10° NNW visible
01 Dec 3.5 05:19:58 10° NNE 05:25:02 63° E 05:30:04 10° S visible
01 Dec 3.2 16:37:05 10° S 16:42:10 79° WSW 16:47:16 10° NNW visible
01 Dec 6.4 18:21:26 10° W 18:22:01 10° W 18:22:36 10° WNW visible
02 Dec 5.0 04:43:35 10° NNE 04:48:03 30° E 04:52:28 10° SSE visible
02 Dec 5.5 17:40:48 10° SW 17:44:44 22° W 17:48:41 10° NW visible
03 Dec 6.0 04:08:08 10° NE 04:10:50 14° E 04:13:31 10° ESE visible
03 Dec 2.9 05:45:22 10° N 05:50:28 79° WNW 05:55:33 10° SSW visible
03 Dec 4.2 17:02:47 10° S 17:07:39 46° W 17:12:33 10° NNW visible
04 Dec 4.0 05:08:39 10° NNE 05:13:37 50° E 05:18:32 10° S visible
04 Dec 3.0 16:25:42 10° SSE 16:30:46 84° ENE 16:35:54 10° NNW visible
04 Dec 6.1 18:08:05 10° WSW 18:10:27 13° W 18:12:51 10° WNW visible
